This is the latest recevied weather packets stored in our database for station/object KQ4NAL. If no packets are shown the sender has not sent any weather packets the latest 10 day(s).
| Time | Temp. | Humidity | Pressure | Rain* | Wind** | Luminosity | Snow |
|---|---|---|---|---|---|---|---|
| 1777480788 | 15° C | 98% | 1011.3 hPa | 0 mm | - | 126 W/m² | - |
| 1777480485 | 15° C | 98% | 1011.1 hPa | 0 mm | - | 162 W/m² | - |
| 1777480181 | 14.44° C | 98% | 1011.2 hPa | 0 mm | - | 163 W/m² | - |
| 1777479878 | 14.44° C | 98% | 1010.9 hPa | 0 mm | - | 169 W/m² | - |
| 1777479574 | 15° C | 99% | 1011.1 hPa | 0 mm | - | 142 W/m² | - |
| 1777479273 | 15.56° C | 98% | 1011 hPa | 0 mm | - | 103 W/m² | - |
| 1777478969 | 15.56° C | 99% | 1010.9 hPa | 0 mm | - | 86 W/m² | - |
| 1777478666 | 15.56° C | 99% | 1010.9 hPa | 0 mm | - | 81 W/m² | - |
| 1777478362 | 16.11° C | 99% | 1010.8 hPa | 0 mm | - | 343 W/m² | - |
| 1777478059 | 15.56° C | 98% | 1010.7 hPa | 0 mm | - | 278 W/m² | - |
| 1777477756 | 15.56° C | 99% | 1011 hPa | 0 mm | - | 291 W/m² | - |
| 1777477451 | 15.56° C | 99% | 1010.7 hPa | 0 mm | - | 170 W/m² | - |
| 1777477148 | 15.56° C | 99% | 1010.8 hPa | 0 mm | - | 144 W/m² | - |
| 1777476844 | 15.56° C | 99% | 1010.7 hPa | 0 mm | - | 127 W/m² | - |
| 1777476541 | 15° C | 99% | 1010.9 hPa | 0 mm | - | 136 W/m² | - |
| 1777476238 | 15° C | 98% | 1010.6 hPa | 0 mm | - | 116 W/m² | - |
| 1777475933 | 15.56° C | 99% | 1010.8 hPa | 1.78 mm | - | 199 W/m² | - |
| 1777475630 | 15° C | 99% | 1011 hPa | 1.78 mm | - | 174 W/m² | - |
| 1777475326 | 15° C | 99% | 1010.8 hPa | 0 mm | - | 117 W/m² | - |
| 1777475021 | 15° C | 99% | 1010.8 hPa | 1.27 mm | - | 83 W/m² | - |
| 1777474718 | 15° C | 99% | 1010.7 hPa | 1.27 mm | - | 60 W/m² | - |
| 1777474415 | 15° C | 99% | 1011 hPa | 1.78 mm | - | 47 W/m² | - |
| 1777474111 | 15° C | 98% | 1010.9 hPa | 1.78 mm | - | 49 W/m² | - |
| 1777473809 | 15° C | 98% | 1011.1 hPa | 3.05 mm | - | 75 W/m² | - |
| 1777473506 | 15.56° C | 98% | 1011 hPa | 3.05 mm | - | 50 W/m² | - |
* Rain latest hour (hover to see other rain measurements)
** Current wind speed in m/s (hover to see current wind gust speed)